Tracking 19254 objects as of 18-Oct-2018
HD Live streaming from Space Station
objects crossing your sky now

REMDEB-NET

Track REMDEB-NET now!
10-day predictions


NORAD ID: 43621
Int'l Code: 1998-067PM
Perigee: 395.9 km
Apogee: 402.0 km
Inclination: 51.6 °
Period: 92.4 minutes
Semi major axis: 6769 km
RCS: Unknown
Launch date: November 20, 1998
Source: United Kingdom (UK)
Launch site: TYURATAM MISSILE AND SPACE COMPLEX (TTMTR)
aabbcc
Your satellite tracking list
Your tracking list is empty




NASA's NSSDC Master Catalog

Two Line Element Set (TLE):
1 43621U 98067PM  18291.51571589  .00064649  00000-0  82781-3 0  9996
2 43621  51.6464 123.0033 0004540 258.5697 101.4644 15.58564949  4922
Source of the keplerian elements: AFSPC